Radiation Dose at Monitoring Post of Fukushima Daini Nuclear Power Station
Date,Time,MP-1(microSv/h),MP-2(microSv/h),MP-3(microSv/h),MP-4(microSv/h),MP-5(microSv/h),MP-6(microSv/h),MP-7(microSv/h),Wind Direction,Wind Velocity(m/s),Rain
2016/07/27,00:00,0.429,0.253,0.441,0.406,0.374,0.207,0.179,south-southwest,7.5,No
2016/07/27,00:10,0.427,0.253,0.443,0.406,0.376,0.205,0.177,south,6.7,No
2016/07/27,00:20,0.428,0.255,0.446,0.402,0.378,0.207,0.177,south-southwest,7.5,No
2016/07/27,00:30,0.426,0.253,0.442,0.405,0.374,0.205,0.178,south,6.9,No
2016/07/27,00:40,0.426,0.252,0.442,0.406,0.375,0.206,0.179,south,6.1,No
2016/07/27,00:50,0.429,0.254,0.445,0.404,0.378,0.206,0.177,south,4.7,No
2016/07/27,01:00,0.427,0.252,0.443,0.406,0.375,0.207,0.179,south,5.3,No
2016/07/27,01:10,0.426,0.251,0.442,0.408,0.373,0.206,0.178,south,5.0,No
2016/07/27,01:20,0.430,0.254,0.444,0.403,0.378,0.207,0.177,south,4.4,No
2016/07/27,01:30,0.430,0.252,0.443,0.405,0.376,0.206,0.180,south,4.9,No
2016/07/27,01:40,0.425,0.253,0.443,0.406,0.376,0.206,0.178,south,5.0,No
2016/07/27,01:50,0.428,0.255,0.444,0.403,0.379,0.206,0.178,south,5.1,No
2016/07/27,02:00,0.431,0.254,0.443,0.406,0.376,0.206,0.179,south,3.9,No
2016/07/27,02:10,0.426,0.253,0.443,0.406,0.375,0.206,0.178,south,3.7,No
2016/07/27,02:20,0.428,0.255,0.448,0.403,0.378,0.205,0.178,south,4.3,No
2016/07/27,02:30,0.429,0.253,0.443,0.405,0.374,0.206,0.179,south,4.5,No
2016/07/27,02:40,0.424,0.253,0.442,0.404,0.376,0.205,0.178,south,5.1,No
2016/07/27,02:50,0.427,0.255,0.445,0.403,0.378,0.205,0.177,south,3.2,No
2016/07/27,03:00,0.429,0.252,0.443,0.405,0.373,0.206,0.180,south,2.3,No
2016/07/27,03:10,0.425,0.253,0.442,0.406,0.376,0.206,0.178,south,2.8,No
2016/07/27,03:20,0.426,0.255,0.448,0.403,0.376,0.206,0.177,south-southwest,4.1,No
2016/07/27,03:30,0.431,0.252,0.445,0.404,0.374,0.207,0.179,south,5.0,No
2016/07/27,03:40,0.425,0.253,0.441,0.407,0.375,0.207,0.178,south-southwest,4.8,No
2016/07/27,03:50,0.428,0.254,0.446,0.403,0.378,0.207,0.177,south,4.0,No
2016/07/27,04:00,0.428,0.251,0.446,0.402,0.374,0.207,0.179,south,3.5,No
2016/07/27,04:10,0.425,0.254,0.441,0.408,0.376,0.207,0.178,south,3.2,No
2016/07/27,04:20,0.427,0.254,0.445,0.404,0.377,0.207,0.178,south,2.9,No
2016/07/27,04:30,0.428,0.252,0.445,0.404,0.375,0.208,0.180,south,2.4,Yes
2016/07/27,04:40,0.427,0.255,0.441,0.407,0.376,0.206,0.178,south,3.5,Yes
2016/07/27,04:50,0.424,0.254,0.445,0.404,0.379,0.206,0.178,south,5.0,Yes
2016/07/27,05:00,0.429,0.252,0.446,0.403,0.376,0.207,0.178,south,4.6,Yes
2016/07/27,05:10,0.426,0.254,0.442,0.406,0.375,0.206,0.178,south,4.2,No
2016/07/27,05:20,0.424,0.254,0.442,0.404,0.379,0.206,0.177,south,3.9,Yes
2016/07/27,05:30,0.432,0.250,0.445,0.402,0.374,0.207,0.178,south,5.0,Yes
2016/07/27,05:40,0.428,0.253,0.442,0.406,0.376,0.207,0.178,south,4.3,Yes
2016/07/27,05:50,0.425,0.253,0.441,0.404,0.379,0.206,0.177,south,4.7,Yes
2016/07/27,06:00,0.429,0.251,0.446,0.401,0.375,0.206,0.178,south,5.0,Yes
2016/07/27,06:10,0.429,0.255,0.444,0.407,0.376,0.207,0.180,south,4.8,Yes
2016/07/27,06:20,0.423,0.254,0.442,0.404,0.377,0.205,0.177,south,4.7,Yes
2016/07/27,06:30,0.429,0.252,0.445,0.401,0.375,0.207,0.179,south,3.6,No
2016/07/27,06:40,0.430,0.253,0.444,0.405,0.372,0.207,0.179,south,5.0,No
2016/07/27,06:50,0.424,0.254,0.440,0.406,0.379,0.205,0.179,south,4.0,No
2016/07/27,07:00,0.426,0.251,0.444,0.402,0.375,0.206,0.176,south,4.4,No
2016/07/27,07:10,0.428,0.253,0.443,0.404,0.373,0.207,0.180,south,4.6,No
2016/07/27,07:20,0.425,0.255,0.442,0.406,0.378,0.207,0.178,south,4.9,No
2016/07/27,07:30,0.424,0.252,0.443,0.404,0.378,0.206,0.178,south,4.5,No
2016/07/27,07:40,0.430,0.252,0.447,0.402,0.374,0.207,0.177,south,3.6,No
2016/07/27,07:50,0.429,0.254,0.445,0.406,0.374,0.207,0.178,south,3.3,No
2016/07/27,08:00,0.425,0.254,0.441,0.405,0.376,0.207,0.177,south,3.6,No
2016/07/27,08:10,0.426,0.252,0.442,0.403,0.378,0.205,0.177,south-southwest,4.0,No
2016/07/27,08:20,0.432,0.251,0.447,0.401,0.374,0.207,0.178,south-southwest,4.7,Yes
2016/07/27,08:30,0.428,0.253,0.443,0.405,0.374,0.207,0.178,south-southwest,3.7,No
2016/07/27,08:40,0.425,0.255,0.439,0.406,0.376,0.205,0.178,south-southwest,3.1,No
2016/07/27,08:50,0.425,0.252,0.440,0.402,0.378,0.205,0.176,south-southwest,5.4,Yes
2016/07/27,09:00,0.430,0.251,0.445,0.401,0.375,0.206,0.177,south-southwest,5.9,Yes
2016/07/27,09:10,0.429,0.252,0.445,0.406,0.373,0.207,0.178,south,7.5,No
2016/07/27,09:20,0.423,0.255,0.440,0.405,0.376,0.206,0.178,south,8.6,Yes
2016/07/27,09:30,0.424,0.254,0.442,0.402,0.379,0.206,0.176,south,7.2,No
2016/07/27,09:40,0.429,0.253,0.446,0.403,0.376,0.207,0.177,south-southwest,7.8,Yes
2016/07/27,09:50,0.429,0.252,0.443,0.408,0.373,0.207,0.179,south-southwest,5.8,Yes
2016/07/27,10:00,0.427,0.250,0.442,0.406,0.371,0.206,0.178,south-southwest,6.7,No
2016/07/27,10:10,0.425,0.252,0.440,0.403,0.375,0.206,0.178,south-southwest,7.2,No
2016/07/27,10:20,0.424,0.255,0.446,0.400,0.377,0.207,0.178,south-southwest,6.4,No
2016/07/27,10:30,0.431,0.253,0.444,0.407,0.377,0.208,0.177,south-southwest,8.1,No
2016/07/27,10:40,0.430,0.252,0.442,0.406,0.375,0.206,0.179,south-southwest,9.8,No
2016/07/27,10:50,0.428,0.252,0.439,0.404,0.374,0.206,0.179,south-southwest,9.2,Yes
2016/07/27,11:00,0.426,0.251,0.443,0.401,0.372,0.206,0.179,south-southwest,9.8,No
2016/07/27,11:10,0.422,0.251,0.447,0.403,0.374,0.207,0.177,south-southwest,9.6,No
2016/07/27,11:20,0.423,0.251,0.445,0.407,0.372,0.206,0.178,south-southwest,10.2,No
2016/07/27,11:30,0.422,0.251,0.442,0.405,0.372,0.208,0.177,south-southwest,10.4,No
2016/07/27,11:40,0.425,0.253,0.440,0.404,0.373,0.207,0.177,south-southwest,9.3,No
2016/07/27,11:50,0.431,0.252,0.440,0.402,0.372,0.207,0.177,south-southwest,11.5,No
2016/07/27,12:00,0.431,0.252,0.439,0.402,0.375,0.206,0.177,south-southwest,10.5,No
2016/07/27,12:10,0.429,0.252,0.440,0.400,0.374,0.206,0.177,south-southwest,9.0,No
2016/07/27,12:20,0.427,0.251,0.445,0.401,0.373,0.206,0.177,south-southwest,8.7,No
2016/07/27,12:30,0.424,0.253,0.447,0.401,0.376,0.207,0.176,south-southwest,7.7,No
2016/07/27,12:40,0.424,0.253,0.445,0.402,0.376,0.207,0.177,south-southwest,8.6,No
2016/07/27,12:50,0.424,0.253,0.444,0.402,0.376,0.207,0.177,south-southwest,6.5,No
2016/07/27,13:00,0.425,0.253,0.443,0.403,0.376,0.207,0.178,southwest,5.7,No
2016/07/27,13:10,0.427,0.255,0.443,0.405,0.377,0.207,0.180,south-southwest,6.1,No
2016/07/27,13:20,0.427,0.254,0.444,0.404,0.378,0.207,0.178,south-southwest,5.0,No
2016/07/27,13:30,0.428,0.254,0.444,0.404,0.377,0.206,0.179,south,6.1,No
2016/07/27,13:40,0.426,0.255,0.443,0.404,0.377,0.207,0.178,south,7.9,No
2016/07/27,13:50,0.425,0.254,0.441,0.402,0.377,0.207,0.179,south,7.9,No
2016/07/27,14:00,0.426,0.254,0.441,0.403,0.377,0.206,0.178,south,8.6,No
2016/07/27,14:10,0.426,0.254,0.444,0.403,0.377,0.205,0.179,south,7.8,No
2016/07/27,14:20,0.427,0.254,0.443,0.404,0.377,0.206,0.178,south,8.0,No
2016/07/27,14:30,0.426,0.252,0.443,0.405,0.376,0.207,0.178,south,8.3,No
2016/07/27,14:40,0.425,0.255,0.442,0.405,0.376,0.207,0.177,south,10.4,No
2016/07/27,14:50,0.426,0.253,0.443,0.405,0.376,0.206,0.177,south,9.8,No
2016/07/27,15:00,0.424,0.251,0.442,0.404,0.375,0.207,0.177,south,10.4,No
2016/07/27,15:10,0.425,0.252,0.443,0.402,0.374,0.206,0.177,south,9.9,No
2016/07/27,15:20,0.432,0.252,0.441,0.401,0.373,0.206,0.177,south,9.8,No
2016/07/27,15:30,0.430,0.251,0.442,0.409,0.374,0.206,0.177,south,9.5,No
2016/07/27,15:40,0.429,0.251,0.442,0.407,0.373,0.207,0.176,south,8.9,No
2016/07/27,15:50,0.424,0.252,0.441,0.407,0.374,0.207,0.178,south,8.9,No
2016/07/27,16:00,0.424,0.253,0.447,0.404,0.374,0.207,0.179,south,8.9,No
2016/07/27,16:10,0.426,0.255,0.448,0.402,0.375,0.207,0.179,south,8.6,No
2016/07/27,16:20,0.431,0.254,0.448,0.406,0.375,0.207,0.179,south,8.7,No
2016/07/27,16:30,0.431,0.253,0.442,0.410,0.373,0.207,0.178,south,10.0,No
2016/07/27,16:40,0.427,0.251,0.442,0.406,0.374,0.208,0.179,south,8.6,No
2016/07/27,16:50,0.425,0.255,0.446,0.402,0.377,0.206,0.179,south-southwest,8.7,No
2016/07/27,17:00,0.425,0.254,0.447,0.404,0.382,0.207,0.178,south-southwest,8.4,No
2016/07/27,17:10,0.430,0.253,0.447,0.409,0.378,0.208,0.178,south-southwest,7.3,No
2016/07/27,17:20,0.428,0.251,0.442,0.406,0.375,0.207,0.179,south-southwest,6.4,No
2016/07/27,17:30,0.426,0.254,0.443,0.403,0.374,0.207,0.178,south,5.2,No
2016/07/27,17:40,0.424,0.254,0.448,0.404,0.380,0.206,0.177,south,5.0,No
2016/07/27,17:50,0.431,0.254,0.448,0.407,0.379,0.206,0.177,south-southwest,5.9,No
2016/07/27,18:00,0.431,0.253,0.443,0.406,0.376,0.205,0.179,south-southwest,6.2,No
2016/07/27,18:10,0.427,0.253,0.442,0.402,0.374,0.206,0.178,south-southwest,5.5,No
2016/07/27,18:20,0.424,0.254,0.449,0.405,0.380,0.207,0.178,south-southwest,6.4,No
2016/07/27,18:30,0.431,0.252,0.447,0.408,0.379,0.207,0.179,south-southwest,7.3,No
2016/07/27,18:40,0.431,0.252,0.443,0.406,0.375,0.206,0.180,south-southwest,5.9,No
2016/07/27,18:50,0.427,0.254,0.444,0.403,0.376,0.207,0.179,south-southwest,7.8,No
2016/07/27,19:00,0.427,0.254,0.447,0.407,0.378,0.206,0.178,south-southwest,6.9,No
2016/07/27,19:10,0.433,0.252,0.444,0.406,0.376,0.207,0.180,south-southwest,6.2,No
2016/07/27,19:20,0.429,0.254,0.442,0.403,0.374,0.208,0.178,south-southwest,6.7,No
2016/07/27,19:30,0.425,0.253,0.448,0.406,0.379,0.207,0.178,south-southwest,6.3,No
2016/07/27,19:40,0.431,0.253,0.445,0.408,0.377,0.206,0.180,south-southwest,6.7,No
2016/07/27,19:50,0.428,0.255,0.443,0.404,0.374,0.207,0.178,south-southwest,7.8,No
2016/07/27,20:00,0.425,0.253,0.446,0.405,0.379,0.206,0.177,south-southwest,6.9,No
2016/07/27,20:10,0.430,0.252,0.448,0.406,0.377,0.206,0.179,south-southwest,6.8,No
2016/07/27,20:20,0.430,0.256,0.443,0.405,0.375,0.205,0.179,south-southwest,7.8,No
2016/07/27,20:30,0.425,0.253,0.442,0.404,0.377,0.206,0.177,south-southwest,7.7,No
2016/07/27,20:40,0.427,0.252,0.448,0.408,0.378,0.206,0.180,south-southwest,6.8,No
2016/07/27,20:50,0.429,0.255,0.447,0.406,0.374,0.206,0.179,south-southwest,6.8,No
2016/07/27,21:00,0.427,0.252,0.442,0.404,0.378,0.207,0.177,south-southwest,8.0,No
2016/07/27,21:10,0.428,0.253,0.449,0.407,0.379,0.207,0.178,south-southwest,8.2,No
2016/07/27,21:20,0.429,0.253,0.445,0.407,0.375,0.207,0.178,south-southwest,7.8,No
2016/07/27,21:30,0.427,0.252,0.441,0.403,0.377,0.208,0.177,south-southwest,8.2,No
2016/07/27,21:40,0.427,0.255,0.446,0.406,0.379,0.206,0.178,south-southwest,8.6,No
2016/07/27,21:50,0.431,0.254,0.447,0.407,0.376,0.206,0.178,south-southwest,9.2,No
2016/07/27,22:00,0.427,0.253,0.443,0.405,0.376,0.207,0.177,south-southwest,9.4,No
2016/07/27,22:10,0.426,0.254,0.443,0.406,0.379,0.207,0.178,south-southwest,7.8,No
2016/07/27,22:20,0.432,0.254,0.446,0.410,0.375,0.205,0.180,south-southwest,7.3,No
2016/07/27,22:30,0.428,0.252,0.445,0.404,0.374,0.207,0.178,south-southwest,7.4,No
2016/07/27,22:40,0.425,0.254,0.441,0.405,0.378,0.207,0.177,south-southwest,6.9,No
2016/07/27,22:50,0.430,0.255,0.447,0.409,0.377,0.205,0.180,south-southwest,7.5,No
2016/07/27,23:00,0.429,0.252,0.446,0.405,0.373,0.207,0.178,south-southwest,7.4,No
2016/07/27,23:10,0.425,0.255,0.443,0.403,0.379,0.207,0.178,south-southwest,7.4,No
2016/07/27,23:20,0.429,0.254,0.443,0.408,0.377,0.207,0.178,south-southwest,7.2,No
2016/07/27,23:30,0.429,0.253,0.447,0.405,0.374,0.206,0.178,south-southwest,6.8,No
2016/07/27,23:40,0.425,0.256,0.444,0.402,0.377,0.207,0.178,south-southwest,7.8,No
2016/07/27,23:50,0.432,0.254,0.441,0.408,0.376,0.206,0.179,south-southwest,8.1,No
